,,Stat6,,Stat2,,Stat8,,Stat9,,Stat10,,Wind1,,Wind1,
time,status,PA1M_AVG,status,PR1M_SUM,status,RH1M_AVG,status,SR1M_AVG,status,TA1M_AVG,status,W1dAve1m,status,W1sAve1m,
2004-04-09, 00:00:00,VALID,919.373,VALID,0,VALID,100,VALID,-0.0849042,VALID,18.8847,VALID,131,VALID,0.463356,
2004-04-09, 00:01:00,VALID,919.364,VALID,0,VALID,100,VALID,-0.101885,VALID,18.8721,VALID,135,VALID,0.635938,
2004-04-09, 00:02:00,VALID,919.364,VALID,0,VALID,100,VALID,-0.0169808,VALID,18.8646,VALID,139,VALID,0.621916,
2004-04-09, 00:03:00,VALID,919.364,VALID,0,VALID,100,VALID,-0.0339617,VALID,18.8582,VALID,138,VALID,0.652902,
2004-04-09, 00:04:00,VALID,919.339,VALID,0,VALID,100,VALID,-0.0679233,VALID,18.8746,VALID,133,VALID,0.658913,
2004-04-09, 00:05:00,VALID,919.334,VALID,0,VALID,100,VALID,-0.0509425,VALID,18.9011,VALID,135,VALID,0.88244,
2004-04-09, 00:06:00,VALID,919.301,VALID,0,VALID,100,VALID,-0.0169808,VALID,18.9098,VALID,134,VALID,0.819247,
2004-04-09, 00:07:00,VALID,919.278,VALID,0,VALID,100,VALID,-0.0679233,VALID,18.9034,VALID,138,VALID,0.815163,
2004-04-09, 00:08:00,VALID,919.258,VALID,0,VALID,100,VALID,-0.0509425,VALID,18.8935,VALID,138,VALID,0.858817,
2004-04-09, 00:09:00,VALID,919.228,VALID,0,VALID,100,VALID,-0.0339617,VALID,18.8907,VALID,132,VALID,0.964749,
2004-04-09, 00:10:00,VALID,919.208,VALID,0,VALID,100,VALID,-0.0169808,VALID,18.884,VALID,132,VALID,0.893674,
2004-04-09, 00:11:00,VALID,919.203,VALID,0,VALID,100,VALID,-0.0509425,VALID,18.8806,VALID,126,VALID,0.907031,
2004-04-09, 00:12:00,VALID,919.189,VALID,0,VALID,100,VALID,-0.0509425,VALID,18.8709,VALID,114,VALID,0.770894,
2004-04-09, 00:13:00,VALID,919.195,VALID,0,VALID,100,VALID,-0.0339617,VALID,18.8709,VALID,113,VALID,0.925071,
2004-04-09, 00:14:00,VALID,919.183,VALID,0,VALID,100,VALID,-0.0169808,VALID,18.8743,VALID,113,VALID,0.747337,
2004-04-09, 00:15:00,VALID,919.17,VALID,0,VALID,100,VALID,-0.0169808,VALID,18.8743,VALID,125,VALID,1.00534,
2004-04-09, 00:16:00,VALID,919.161,VALID,0,VALID,100,VALID,-0.0169808,VALID,18.8709,VALID,122,VALID,1.17097,
2004-04-09, 00:17:00,VALID,919.133,VALID,0,VALID,100,VALID,-0.0169808,VALID,18.8746,VALID,130,VALID,0.954459,
2004-04-09, 00:18:00,VALID,919.125,VALID,0,VALID,100,VALID,-0.0169808,VALID,18.8713,VALID,125,VALID,0.707031,
2004-04-09, 00:19:00,VALID,919.091,VALID,0,VALID,100,VALID,-0.0339617,VALID,18.852,VALID,110,VALID,0.653161,
2004-04-09, 00:20:00,VALID,919.066,VALID,0,VALID,100,VALID,0,VALID,18.8197,VALID,74,VALID,0.632639,
2004-04-09, 00:21:00,VALID,919.054,VALID,0,VALID,100,VALID,-0.0509425,VALID,18.765,VALID,53,VALID,0.968378,
2004-04-09, 00:22:00,VALID,919.05,VALID,0,VALID,100,VALID,-0.0339617,VALID,18.7101,VALID,58,VALID,0.99782,
2004-04-09, 00:23:00,VALID,919.048,VALID,0,VALID,100,VALID,-0.0169808,VALID,18.6774,VALID,77,VALID,0.811942,
2004-04-09, 00:24:00,VALID,919.037,VALID,0,VALID,100,VALID,-0.0339617,VALID,18.6682,VALID,105,VALID,0.955729,
2004-04-09, 00:25:00,VALID,919.037,VALID,0,VALID,100,VALID,-0.0339617,VALID,18.6834,VALID,108,VALID,0.980655,
2004-04-09, 00:26:00,VALID,919.033,VALID,0,VALID,100,VALID,-0.0169808,VALID,18.703,VALID,120,VALID,1.11464,
2004-04-09, 00:27:00,VALID,919.032,VALID,0,VALID,100,VALID,-0.0509425,VALID,18.6968,VALID,125,VALID,1.11839,
2004-04-09, 00:28:00,VALID,919.045,VALID,0,VALID,100,VALID,-0.0169808,VALID,18.6548,VALID,129,VALID,0.935683,
2004-04-09, 00:29:00,VALID,919.039,VALID,0,VALID,100,VALID,-0.0169808,VALID,18.6423,VALID,125,VALID,0.990057,
2004-04-09, 00:30:00,VALID,919.051,VALID,0,VALID,100,VALID,-0.0339617,VALID,18.619,VALID,118,VALID,1.17746,
2004-04-09, 00:31:00,VALID,919.035,VALID,0,VALID,100,VALID,-0.0509425,VALID,18.6262,VALID,125,VALID,1.14844,
2004-04-09, 00:32:00,VALID,919.018,VALID,0,VALID,100,VALID,0.0679233,VALID,18.6186,VALID,131,VALID,1.2024,
2004-04-09, 00:33:00,VALID,919.003,VALID,0,VALID,100,VALID,0.0679233,VALID,18.6176,VALID,133,VALID,1.26172,
2004-04-09, 00:34:00,VALID,918.979,VALID,0,VALID,100,VALID,0.0339617,VALID,18.6633,VALID,131,VALID,1.15086,
2004-04-09, 00:35:00,VALID,918.987,VALID,0,VALID,100,VALID,0.0849042,VALID,18.6735,VALID,127,VALID,0.983398,
2004-04-09, 00:36:00,VALID,918.963,VALID,0,VALID,100,VALID,0.0509425,VALID,18.6536,VALID,124,VALID,0.792289,
2004-04-09, 00:37:00,VALID,918.959,VALID,0,VALID,100,VALID,0.0169808,VALID,18.6412,VALID,114,VALID,0.626272,
2004-04-09, 00:38:00,VALID,918.952,VALID,0,VALID,100,VALID,0.0849042,VALID,18.6179,VALID,111,VALID,0.668555,
2004-04-09, 00:39:00,VALID,918.932,VALID,0,VALID,100,VALID,0.0339617,VALID,18.6479,VALID,111,VALID,0.696766,
2004-04-09, 00:40:00,VALID,918.923,VALID,0,VALID,100,VALID,0.0339617,VALID,18.6707,VALID,111,VALID,0.639027,
2004-04-09, 00:41:00,VALID,918.906,VALID,0,VALID,100,VALID,0.0509425,VALID,18.664,VALID,107,VALID,0.57919,
2004-04-09, 00:42:00,VALID,918.891,VALID,0,VALID,100,VALID,0.0339617,VALID,18.6347,VALID,106,VALID,0.400534,
2004-04-09, 00:43:00,VALID,918.88,VALID,0,VALID,100,VALID,0.0339617,VALID,18.5632,VALID,104,VALID,0.633903,
2004-04-09, 00:44:00,VALID,918.862,VALID,0,VALID,100,VALID,0.0679233,VALID,18.5409,VALID,90,VALID,0.787348,
2004-04-09, 00:45:00,VALID,918.857,VALID,0,VALID,100,VALID,0.0169808,VALID,18.5254,VALID,80,VALID,0.851753,
2004-04-09, 00:46:00,VALID,918.831,VALID,0,VALID,100,VALID,0.0169808,VALID,18.4927,VALID,74,VALID,0.986919,
2004-04-09, 00:47:00,VALID,918.829,VALID,0,VALID,100,VALID,-0.0509425,VALID,18.4772,VALID,70,VALID,0.922433,
2004-04-09, 00:48:00,VALID,918.813,VALID,0,VALID,100,VALID,-0.0679233,VALID,18.5296,VALID,69,VALID,0.92702,
2004-04-09, 00:49:00,VALID,918.8,VALID,0,VALID,100,VALID,-0.0339617,VALID,18.5852,VALID,87,VALID,0.611852,
2004-04-09, 00:50:00,VALID,918.802,VALID,0,VALID,100,VALID,-0.0679233,VALID,18.5944,VALID,88,VALID,0.692336,
2004-04-09, 00:51:00,VALID,918.795,VALID,0,VALID,100,VALID,-0.0509425,VALID,18.5942,VALID,87,VALID,0.448552,
2004-04-09, 00:52:00,VALID,918.786,VALID,0,VALID,100,VALID,-0.0509425,VALID,18.4809,VALID,67,VALID,0.529297,
2004-04-09, 00:53:00,VALID,918.773,VALID,0,VALID,100,VALID,-0.0679233,VALID,18.397,VALID,58,VALID,0.466319,
2004-04-09, 00:54:00,VALID,918.776,VALID,0,VALID,100,VALID,-0.0169808,VALID,18.3682,VALID,54,VALID,0.56994,
2004-04-09, 00:55:00,VALID,918.757,VALID,0,VALID,100,VALID,-0.0339617,VALID,18.284,VALID,50,VALID,0.654762,
2004-04-09, 00:56:00,VALID,918.748,VALID,0,VALID,100,VALID,-0.0339617,VALID,18.2487,VALID,50,VALID,0.585405,
2004-04-09, 00:57:00,VALID,918.736,VALID,0,VALID,100,VALID,-0.0339617,VALID,18.2294,VALID,50,VALID,0.424306,
2004-04-09, 00:58:00,VALID,918.726,VALID,0,VALID,100,VALID,-0.0339617,VALID,18.1872,VALID,50,VALID,0.0907012,
2004-04-09, 00:59:00,VALID,918.703,VALID,0,VALID,100,VALID,-0.0169808,VALID,18.1544,VALID,50,VALID,0.00342988,
2004-04-09, 01:00:00,VALID,918.707,VALID,0,VALID,100,VALID,-0.0339617,VALID,18.1745,VALID,50,VALID,0,
2004-04-09, 01:01:00,VALID,918.71,VALID,0,VALID,100,VALID,-0.0509425,VALID,18.1844,VALID,50,VALID,0,
2004-04-09, 01:02:00,VALID,918.712,VALID,0,VALID,100,VALID,-0.0339617,VALID,18.213,VALID,50,VALID,0,
2004-04-09, 01:03:00,VALID,918.723,VALID,0,VALID,100,VALID,-0.0339617,VALID,18.2715,VALID,50,VALID,0,
2004-04-09, 01:04:00,VALID,918.717,VALID,0,VALID,100,VALID,-0.0849042,VALID,18.2778,VALID,50,VALID,0,
2004-04-09, 01:05:01,VALID,918.706,VALID,0,VALID,100,VALID,-0.101885,VALID,18.3197,VALID,50,VALID,0,
2004-04-09, 01:06:00,VALID,918.707,VALID,0,VALID,100,VALID,-0.0849042,VALID,18.3396,VALID,53,VALID,0.110224,
2004-04-09, 01:07:00,VALID,918.688,VALID,0,VALID,100,VALID,-0.0509425,VALID,18.2845,VALID,72,VALID,0.443892,
2004-04-09, 01:08:00,VALID,918.671,VALID,0,VALID,100,VALID,-0.0679233,VALID,18.236,VALID,113,VALID,0.498094,
2004-04-09, 01:09:00,VALID,918.658,VALID,0,VALID,100,VALID,-0.0509425,VALID,18.2264,VALID,114,VALID,0.57066,
2004-04-09, 01:10:01,VALID,918.649,VALID,0,VALID,100,VALID,-0.0849042,VALID,18.2492,VALID,114,VALID,0.411133,
2004-04-09, 01:11:00,VALID,918.628,VALID,0,VALID,100,VALID,-0.101885,VALID,18.2685,VALID,114,VALID,0.211301,
2004-04-09, 01:12:00,VALID,918.626,VALID,0,VALID,100,VALID,-0.0679233,VALID,18.2231,VALID,114,VALID,0.0999645,
2004-04-09, 01:13:00,VALID,918.617,VALID,0,VALID,100,VALID,-0.0849042,VALID,18.1782,VALID,114,VALID,0,
2004-04-09, 01:14:00,VALID,918.617,VALID,0,VALID,100,VALID,-0.0849042,VALID,18.1722,VALID,114,VALID,0,
2004-04-09, 01:15:00,VALID,918.612,VALID,0,VALID,100,VALID,-0.0849042,VALID,18.1426,VALID,114,VALID,0,
2004-04-09, 01:16:01,VALID,918.618,VALID,0,VALID,100,VALID,-0.101885,VALID,18.1498,VALID,114,VALID,0,
2004-04-09, 01:17:00,VALID,918.619,VALID,0,VALID,100,VALID,-0.101885,VALID,18.1791,VALID,114,VALID,0,
2004-04-09, 01:18:00,VALID,918.622,VALID,0,VALID,100,VALID,-0.0509425,VALID,18.1722,VALID,114,VALID,0,
2004-04-09, 01:19:00,VALID,918.617,VALID,0,VALID,100,VALID,-0.0339617,VALID,18.1267,VALID,114,VALID,0.0114583,
2004-04-09, 01:20:01,VALID,918.623,VALID,0,VALID,100,VALID,-0.0849042,VALID,18.1,VALID,114,VALID,0.260789,
2004-04-09, 01:21:00,VALID,918.607,VALID,0,VALID,100,VALID,-0.0849042,VALID,18.1104,VALID,114,VALID,0.47237,
2004-04-09, 01:22:00,VALID,918.593,VALID,0,VALID,100,VALID,-0.0849042,VALID,18.0781,VALID,114,VALID,0.423438,
2004-04-09, 01:23:00,VALID,918.581,VALID,0,VALID,100,VALID,-0.0679233,VALID,18.0527,VALID,114,VALID,0.306944,
2004-04-09, 01:24:00,VALID,918.574,VALID,0,VALID,100,VALID,-0.0509425,VALID,18.0006,VALID,114,VALID,0.099564,
2004-04-09, 01:25:00,VALID,918.558,VALID,0,VALID,100,VALID,-0.0509425,VALID,17.9621,VALID,114,VALID,0,
2004-04-09, 01:26:00,VALID,918.54,VALID,0,VALID,100,VALID,-0.0509425,VALID,17.9427,VALID,114,VALID,0,
2004-04-09, 01:27:00,VALID,918.54,VALID,0,VALID,100,VALID,-0.0509425,VALID,17.9229,VALID,114,VALID,0.0580357,
2004-04-09, 01:28:00,VALID,918.532,VALID,0,VALID,100,VALID,-0.0679233,VALID,17.9686,VALID,114,VALID,0.440168,
2004-04-09, 01:29:01,VALID,918.524,VALID,0,VALID,100,VALID,-0.0679233,VALID,18.0493,VALID,114,VALID,0.719815,
2004-04-09, 01:30:00,VALID,918.508,VALID,0,VALID,100,VALID,-0.0509425,VALID,18.1106,VALID,111,VALID,0.752725,
2004-04-09, 01:31:00,VALID,918.503,VALID,0,VALID,100,VALID,-0.0169808,VALID,18.1779,VALID,111,VALID,0.681286,
2004-04-09, 01:32:00,VALID,918.478,VALID,0,VALID,100,VALID,-0.0509425,VALID,18.2462,VALID,111,VALID,0.601918,
2004-04-09, 01:33:00,VALID,918.452,VALID,0,VALID,100,VALID,-0.0509425,VALID,18.2363,VALID,111,VALID,0.225818,
2004-04-09, 01:34:00,VALID,918.415,VALID,0,VALID,100,VALID,-0.101885,VALID,18.1786,VALID,111,VALID,0.0116279,
2004-04-09, 01:35:01,VALID,918.398,VALID,0,VALID,100,VALID,-0.101885,VALID,18.0682,VALID,111,VALID,0,
2004-04-09, 01:36:00,VALID,918.361,VALID,0,VALID,100,VALID,-0.0849042,VALID,17.9944,VALID,111,VALID,0,
2004-04-09, 01:37:00,VALID,918.342,VALID,0,VALID,100,VALID,-0.101885,VALID,17.9072,VALID,111,VALID,0,
2004-04-09, 01:38:00,VALID,918.314,VALID,0,VALID,100,VALID,-0.0339617,VALID,17.8844,VALID,111,VALID,0.012429,
2004-04-09, 01:39:01,VALID,918.289,VALID,0,VALID,100,VALID,-0.0679233,VALID,17.9012,VALID,111,VALID,0.221475,
2004-04-09, 01:40:01,VALID,918.263,VALID,0,VALID,100,VALID,-0.0169808,VALID,17.8685,VALID,111,VALID,0.395089,
2004-04-09, 01:41:00,VALID,918.228,VALID,0,VALID,100,VALID,-0.0849042,VALID,17.8978,VALID,112,VALID,0.761523,
2004-04-09, 01:42:00,VALID,918.192,VALID,0,VALID,100,VALID,-0.101885,VALID,17.9178,VALID,116,VALID,0.895833,
2004-04-09, 01:43:01,VALID,918.151,VALID,0,VALID,100,VALID,-0.0679233,VALID,17.9042,VALID,119,VALID,0.921494,
2004-04-09, 01:44:00,VALID,918.132,VALID,0,VALID,100,VALID,-0.0679233,VALID,17.9072,VALID,125,VALID,1.05208,
2004-04-09, 01:45:00,VALID,918.106,VALID,0,VALID,100,VALID,-0.0849042,VALID,17.9914,VALID,129,VALID,1.02653,
2004-04-09, 01:46:01,VALID,918.083,VALID,0,VALID,100,VALID,-0.0509425,VALID,18.0917,VALID,133,VALID,0.758539,
2004-04-09, 01:47:01,VALID,918.08,VALID,0,VALID,100,VALID,-0.0169808,VALID,18.0783,VALID,130,VALID,0.374442,
2004-04-09, 01:48:00,VALID,918.064,VALID,0,VALID,100,VALID,-0.0849042,VALID,18.0068,VALID,124,VALID,0.263867,
2004-04-09, 01:49:00,VALID,918.054,VALID,0,VALID,100,VALID,-0.0679233,VALID,17.9266,VALID,123,VALID,0.328125,
2004-04-09, 01:50:01,VALID,918.057,VALID,0,VALID,100,VALID,-0.0169808,VALID,17.8166,VALID,123,VALID,0.200977,
2004-04-09, 01:51:01,VALID,918.045,VALID,0,VALID,100,VALID,-0.0339617,VALID,17.785,VALID,123,VALID,0.0321584,
2004-04-09, 01:52:00,VALID,918.042,VALID,0,VALID,100,VALID,-0.0169808,VALID,17.7682,VALID,123,VALID,0.014881,
2004-04-09, 01:53:00,VALID,918.024,VALID,0,VALID,100,VALID,-0.0679233,VALID,17.7783,VALID,123,VALID,0,
2004-04-09, 01:54:01,VALID,918.008,VALID,0,VALID,100,VALID,-0.0849042,VALID,17.8007,VALID,123,VALID,0,
2004-04-09, 01:55:01,VALID,917.978,VALID,0,VALID,100,VALID,-0.0849042,VALID,17.8496,VALID,123,VALID,0,
2004-04-09, 01:56:00,VALID,917.956,VALID,0,VALID,100,VALID,-0.0679233,VALID,17.8565,VALID,123,VALID,0,
2004-04-09, 01:57:01,VALID,917.914,VALID,0,VALID,100,VALID,-0.0509425,VALID,17.8786,VALID,123,VALID,0,
2004-04-09, 01:58:00,VALID,917.884,VALID,0,VALID,100,VALID,-0.0509425,VALID,17.8913,VALID,123,VALID,0,
2004-04-09, 01:59:00,VALID,917.847,VALID,0,VALID,100,VALID,-0.0679233,VALID,17.8913,VALID,123,VALID,0,
2004-04-09, 02:00:00,VALID,917.811,VALID,0,VALID,100,VALID,-0.0679233,VALID,17.9081,VALID,123,VALID,0.350632,
2004-04-09, 02:01:01,VALID,917.784,VALID,0,VALID,100,VALID,-0.0169808,VALID,17.8752,VALID,123,VALID,0.509233,
2004-04-09, 02:02:00,VALID,917.768,VALID,0.2,VALID,100,VALID,0.0169808,VALID,17.8584,VALID,136,VALID,0.595508,
2004-04-09, 02:03:01,VALID,917.758,VALID,0,VALID,100,VALID,0.0679233,VALID,17.8383,VALID,138,VALID,0.640803,
2004-04-09, 02:04:00,VALID,917.743,VALID,0,VALID,100,VALID,0.0169808,VALID,17.7996,VALID,141,VALID,0.746951,
2004-04-09, 02:05:00,VALID,917.737,VALID,0,VALID,100,VALID,0.0849042,VALID,17.7996,VALID,144,VALID,0.601563,
2004-04-09, 02:06:01,VALID,917.727,VALID,0,VALID,100,VALID,0.0509425,VALID,17.7639,VALID,144,VALID,0.420015,
2004-04-09, 02:07:00,VALID,917.727,VALID,0,VALID,100,VALID,0.0509425,VALID,17.7387,VALID,144,VALID,0.267987,
2004-04-09, 02:08:00,VALID,917.717,VALID,0,VALID,100,VALID,0.0509425,VALID,17.7256,VALID,144,VALID,0.12779,
2004-04-09, 02:09:01,VALID,917.71,VALID,0,VALID,100,VALID,0,VALID,17.7323,VALID,144,VALID,0.234012,
2004-04-09, 02:10:00,VALID,917.703,VALID,0,VALID,100,VALID,0.0169808,VALID,17.7417,VALID,144,VALID,0.436012,
2004-04-09, 02:11:01,VALID,917.688,VALID,0,VALID,100,VALID,0,VALID,17.7807,VALID,144,VALID,0.453125,
2004-04-09, 02:12:01,VALID,917.679,VALID,0,VALID,100,VALID,0.0169808,VALID,17.8166,VALID,144,VALID,0.57649,
2004-04-09, 02:13:00,VALID,917.657,VALID,0,VALID,100,VALID,0,VALID,17.8226,VALID,144,VALID,0.619731,
2004-04-09, 02:14:00,VALID,917.648,VALID,0,VALID,100,VALID,0.0339617,VALID,17.8261,VALID,143,VALID,0.812309,
2004-04-09, 02:15:01,VALID,917.632,VALID,0,VALID,100,VALID,0.0169808,VALID,17.8123,VALID,144,VALID,0.830602,
2004-04-09, 02:16:00,VALID,917.619,VALID,0,VALID,100,VALID,0.0339617,VALID,17.8291,VALID,137,VALID,1.02439,
2004-04-09, 02:17:00,VALID,917.612,VALID,0,VALID,100,VALID,0.0339617,VALID,17.8581,VALID,135,VALID,1.12976,
2004-04-09, 02:18:00,VALID,917.594,VALID,0,VALID,100,VALID,0.0679233,VALID,17.9132,VALID,138,VALID,1.09629,
2004-04-09, 02:19:01,VALID,917.577,VALID,0,VALID,100,VALID,0.0509425,VALID,17.9584,VALID,126,VALID,1.12723,
2004-04-09, 02:20:01,VALID,917.554,VALID,0,VALID,100,VALID,0.0509425,VALID,17.9803,VALID,104,VALID,1.0332,
2004-04-09, 02:21:01,VALID,917.536,VALID,0,VALID,100,VALID,0.0169808,VALID,18.0029,VALID,109,VALID,1.06523,
2004-04-09, 02:22:01,VALID,917.515,VALID,0,VALID,100,VALID,0,VALID,18.0421,VALID,120,VALID,1.3423,
2004-04-09, 02:23:00,VALID,917.504,VALID,0,VALID,100,VALID,0.0339617,VALID,18.0682,VALID,128,VALID,1.0278,
2004-04-09, 02:24:00,VALID,917.489,VALID,0,VALID,100,VALID,0.0169808,VALID,18.052,VALID,131,VALID,1.10328,
2004-04-09, 02:25:00,VALID,917.482,VALID,0,VALID,100,VALID,0.0339617,VALID,18.0553,VALID,131,VALID,1.11101,
2004-04-09, 02:26:00,VALID,917.492,VALID,0,VALID,100,VALID,0.0169808,VALID,18.0447,VALID,131,VALID,0.887649,
2004-04-09, 02:27:01,VALID,917.488,VALID,0,VALID,100,VALID,0.0339617,VALID,18.0223,VALID,124,VALID,0.776105,
2004-04-09, 02:28:00,VALID,917.507,VALID,0,VALID,100,VALID,0.0679233,VALID,17.9836,VALID,86,VALID,0.351753,
2004-04-09, 02:29:00,VALID,917.508,VALID,0,VALID,100,VALID,0.0339617,VALID,17.8584,VALID,73,VALID,0.221657,
2004-04-09, 02:30:01,VALID,917.493,VALID,0,VALID,100,VALID,0.0509425,VALID,17.7678,VALID,73,VALID,0.275036,
2004-04-09, 02:31:01,VALID,917.493,VALID,0,VALID,100,VALID,0,VALID,17.7193,VALID,73,VALID,0.332122,
2004-04-09, 02:32:01,VALID,917.49,VALID,0,VALID,100,VALID,0.0169808,VALID,17.7196,VALID,74,VALID,0.407885,
2004-04-09, 02:33:01,VALID,917.479,VALID,0,VALID,100,VALID,0.0679233,VALID,17.777,VALID,89,VALID,0.44077,
2004-04-09, 02:34:00,VALID,917.482,VALID,0,VALID,100,VALID,0.0169808,VALID,17.7996,VALID,89,VALID,0.25,
2004-04-09, 02:35:00,VALID,917.479,VALID,0,VALID,100,VALID,0.0509425,VALID,17.7449,VALID,90,VALID,0.451705,
2004-04-09, 02:36:00,VALID,917.471,VALID,0,VALID,100,VALID,0.0849042,VALID,17.8058,VALID,99,VALID,0.622997,
2004-04-09, 02:37:01,VALID,917.483,VALID,0,VALID,100,VALID,0.0679233,VALID,17.89,VALID,99,VALID,0.602805,
2004-04-09, 02:38:00,VALID,917.485,VALID,0,VALID,100,VALID,0.0339617,VALID,17.9317,VALID,100,VALID,0.888445,
2004-04-09, 02:39:00,VALID,917.488,VALID,0,VALID,100,VALID,0.0339617,VALID,17.9547,VALID,100,VALID,0.784446,
2004-04-09, 02:40:00,VALID,917.496,VALID,0,VALID,100,VALID,0.0679233,VALID,17.8837,VALID,97,VALID,0.677326,
2004-04-09, 02:41:00,VALID,917.474,VALID,0,VALID,100,VALID,0.0679233,VALID,17.8927,VALID,98,VALID,0.71218,
2004-04-09, 02:42:00,VALID,917.459,VALID,0,VALID,100,VALID,0.0849042,VALID,17.9352,VALID,103,VALID,0.89826,
2004-04-09, 02:43:01,VALID,917.429,VALID,0,VALID,100,VALID,0.0849042,VALID,18.0032,VALID,94,VALID,0.716933,
2004-04-09, 02:44:00,VALID,917.402,VALID,0,VALID,100,VALID,0.0339617,VALID,18.0027,VALID,102,VALID,0.72526,
2004-04-09, 02:45:00,VALID,917.382,VALID,0,VALID,100,VALID,0.0339617,VALID,18.0389,VALID,109,VALID,0.535742,
2004-04-09, 02:46:01,VALID,917.346,VALID,0,VALID,100,VALID,0.0509425,VALID,17.9672,VALID,109,VALID,0.210547,
2004-04-09, 02:47:00,VALID,917.329,VALID,0,VALID,100,VALID,-0.0509425,VALID,17.9238,VALID,109,VALID,0.00595238,
2004-04-09, 02:48:00,VALID,917.31,VALID,0,VALID,100,VALID,-0.0679233,VALID,17.8952,VALID,109,VALID,0,
2004-04-09, 02:49:00,VALID,917.328,VALID,0,VALID,100,VALID,-0.101885,VALID,17.8595,VALID,109,VALID,0,
2004-04-09, 02:50:01,VALID,917.325,VALID,0,VALID,100,VALID,-0.0509425,VALID,17.8401,VALID,109,VALID,0.237233,
2004-04-09, 02:51:01,VALID,917.321,VALID,0,VALID,100,VALID,-0.0679233,VALID,17.8051,VALID,109,VALID,0.457122,
2004-04-09, 02:52:00,VALID,917.323,VALID,0,VALID,100,VALID,-0.0339617,VALID,17.7599,VALID,109,VALID,0.459535,
2004-04-09, 02:53:01,VALID,917.325,VALID,0,VALID,100,VALID,-0.0679233,VALID,17.7237,VALID,109,VALID,0.491655,
2004-04-09, 02:54:01,VALID,917.321,VALID,0,VALID,100,VALID,-0.0339617,VALID,17.7048,VALID,110,VALID,0.657738,
2004-04-09, 02:55:01,VALID,917.315,VALID,0,VALID,100,VALID,-0.0509425,VALID,17.7308,VALID,110,VALID,0.789435,
2004-04-09, 02:56:00,VALID,917.304,VALID,0,VALID,100,VALID,-0.0849042,VALID,17.7569,VALID,110,VALID,0.482067,
2004-04-09, 02:57:00,VALID,917.288,VALID,0,VALID,100,VALID,-0.0849042,VALID,17.7246,VALID,110,VALID,0.507635,
2004-04-09, 02:58:01,VALID,917.289,VALID,0,VALID,100,VALID,-0.0849042,VALID,17.6951,VALID,110,VALID,0.667039,
2004-04-09, 02:59:01,VALID,917.271,VALID,0,VALID,100,VALID,-0.0509425,VALID,17.7149,VALID,118,VALID,0.91847,
2004-04-09, 03:00:01,VALID,917.26,VALID,0,VALID,100,VALID,-0.0509425,VALID,17.7497,VALID,120,VALID,0.893102,
2004-04-09, 03:01:01,VALID,917.26,VALID,0,VALID,100,VALID,-0.0679233,VALID,17.8214,VALID,120,VALID,0.860937,
2004-04-09, 03:02:01,VALID,917.246,VALID,0,VALID,100,VALID,0.0169808,VALID,17.8623,VALID,123,VALID,0.783203,
2004-04-09, 03:03:01,VALID,917.233,VALID,0,VALID,100,VALID,0.0509425,VALID,17.8876,VALID,124,VALID,0.645952,
2004-04-09, 03:04:01,VALID,917.226,VALID,0,VALID,100,VALID,0.0339617,VALID,17.8849,VALID,124,VALID,0.684028,
2004-04-09, 03:05:01,VALID,917.211,VALID,0,VALID,100,VALID,0.0339617,VALID,17.8973,VALID,112,VALID,0.618278,
2004-04-09, 03:06:01,VALID,917.201,VALID,0,VALID,100,VALID,0.0169808,VALID,17.8586,VALID,110,VALID,0.514915,
2004-04-09, 03:07:00,VALID,917.192,VALID,0,VALID,100,VALID,0,VALID,17.7136,VALID,110,VALID,0.435683,
2004-04-09, 03:08:01,VALID,917.199,VALID,0,VALID,100,VALID,0.0339617,VALID,17.5875,VALID,94,VALID,0.762355,
2004-04-09, 03:09:01,VALID,917.193,VALID,0,VALID,100,VALID,0.0169808,VALID,17.5584,VALID,80,VALID,0.96782,
2004-04-09, 03:10:01,VALID,917.192,VALID,0,VALID,100,VALID,0.0509425,VALID,17.7205,VALID,89,VALID,1.08479,
2004-04-09, 03:11:01,VALID,917.204,VALID,0,VALID,100,VALID,0.0169808,VALID,17.9264,VALID,100,VALID,1.02565,
2004-04-09, 03:12:01,VALID,917.2,VALID,0,VALID,100,VALID,0,VALID,18.0043,VALID,107,VALID,0.826637,
2004-04-09, 03:13:01,VALID,917.198,VALID,0,VALID,100,VALID,0,VALID,17.9623,VALID,117,VALID,1.02656,
2004-04-09, 03:14:01,VALID,917.191,VALID,0,VALID,100,VALID,0.0169808,VALID,17.889,VALID,126,VALID,1.38681,
2004-04-09, 03:15:01,VALID,917.171,VALID,0,VALID,100,VALID,0,VALID,17.8749,VALID,126,VALID,1.35342,
2004-04-09, 03:16:01,VALID,917.174,VALID,0,VALID,100,VALID,0.0339617,VALID,17.8694,VALID,128,VALID,1.26719,
2004-04-09, 03:17:01,VALID,917.163,VALID,0,VALID,100,VALID,0,VALID,17.8558,VALID,119,VALID,1.03264,
2004-04-09, 03:18:01,VALID,917.163,VALID,0,VALID,100,VALID,0.0509425,VALID,17.8779,VALID,118,VALID,1.01843,
2004-04-09, 03:19:01,VALID,917.159,VALID,0,VALID,100,VALID,0.0339617,VALID,17.9001,VALID,122,VALID,1.10976,
2004-04-09, 03:20:01,VALID,917.154,VALID,0,VALID,100,VALID,0.0509425,VALID,17.8941,VALID,119,VALID,0.905678,
2004-04-09, 03:21:01,VALID,917.141,VALID,0,VALID,100,VALID,0.0169808,VALID,17.8521,VALID,120,VALID,0.867188,
2004-04-09, 03:22:01,VALID,917.131,VALID,0,VALID,100,VALID,0.0169808,VALID,17.8168,VALID,131,VALID,1.10499,
2004-04-09, 03:23:01,VALID,917.113,VALID,0,VALID,100,VALID,0,VALID,17.8005,VALID,134,VALID,1.12305,
2004-04-09, 03:24:01,VALID,917.097,VALID,0,VALID,100,VALID,0.0509425,VALID,17.8007,VALID,134,VALID,1.08647,
2004-04-09, 03:25:01,VALID,917.089,VALID,0,VALID,100,VALID,0.0679233,VALID,17.8005,VALID,137,VALID,1.35528,
2004-04-09, 03:26:01,VALID,917.07,VALID,0,VALID,100,VALID,0.0679233,VALID,17.8233,VALID,138,VALID,1.41778,
2004-04-09, 03:27:01,VALID,917.066,VALID,0,VALID,100,VALID,0.0339617,VALID,17.833,VALID,132,VALID,1.35868,
2004-04-09, 03:28:01,VALID,917.05,VALID,0,VALID,100,VALID,0.0169808,VALID,17.7968,VALID,139,VALID,1.36998,
2004-04-09, 03:29:01,VALID,917.024,VALID,0,VALID,100,VALID,0.0339617,VALID,17.797,VALID,134,VALID,1.47552,
2004-04-09, 03:30:01,VALID,917.004,VALID,0,VALID,100,VALID,0.0849042,VALID,17.8261,VALID,133,VALID,1.32324,
2004-04-09, 03:31:01,VALID,916.983,VALID,0,VALID,100,VALID,0.0509425,VALID,17.836,VALID,133,VALID,1.40891,
2004-04-09, 03:32:01,VALID,916.958,VALID,0,VALID,100,VALID,0.0509425,VALID,17.8489,VALID,136,VALID,1.14549,
2004-04-09, 03:33:01,VALID,916.942,VALID,0,VALID,100,VALID,0.0339617,VALID,17.8653,VALID,124,VALID,0.968564,
2004-04-09, 03:34:00,VALID,916.929,VALID,0,VALID,100,VALID,0.0509425,VALID,17.8784,VALID,121,VALID,1.05664,
2004-04-09, 03:35:00,VALID,916.916,VALID,0,VALID,100,VALID,0.0509425,VALID,17.8807,VALID,118,VALID,0.781064,
2004-04-09, 03:36:00,VALID,916.932,VALID,0,VALID,100,VALID,0.0509425,VALID,17.9008,VALID,113,VALID,0.852273,
2004-04-09, 03:37:00,VALID,916.933,VALID,0,VALID,100,VALID,0.0339617,VALID,17.8879,VALID,111,VALID,1.00836,
2004-04-09, 03:38:00,VALID,916.944,VALID,0,VALID,100,VALID,0.0509425,VALID,17.8975,VALID,112,VALID,1.15004,